Location: Unspecified
(0.0000°N, 0.0000°E)
Time: 21:05:13
(UTC+00:00)

deb r/b Ablestar - Pass Details

Date: 07 March 2026
Orbit: 827 x 964 km, 67.7° (Epoch: 11 April)

Event Time Altitude Azimuth Distance (km) Brightness Sun altitude
Rises 19:26:51 0° 6° (N) 3,436 ? -18.9°
Reaches altitude 10° 19:29:45 10° 19° (NNE) 2,525 ? -19.6°
Enters shadow 19:30:56 15° 28° (NNE) 2,212 ? -19.9°
